Satellite: CP6
Catalog number: 35004
Epoch time:      10020.34885402
Element set:    0191
Inclination:      040.4632 deg
RA of node:       017.5179 deg
Eccentricity:    0.0024884
Arg of perigee:   346.3397 deg
Mean anomaly:     013.6738 deg
Mean motion:   15.42454892 rev/day
Decay rate:     +7.658e-05 rev/day^2
Epoch rev:           03785
Checksum:              307

Satellite: AEROCUB3
Catalog number: 35005
Epoch time:      10020.31184887
Element set:    0200
Inclination:      040.4759 deg
RA of node:       018.3902 deg
Eccentricity:    0.0024230
Arg of perigee:   342.9992 deg
Mean anomaly:     017.0009 deg
Mean motion:   15.42679901 rev/day
Decay rate:    +1.4431e-04 rev/day^2
Epoch rev:           03784
Checksum:              267

Satellite: DRAGNSAT
Catalog number: 35690
Epoch time:      10021.69613950
Element set:     197
Inclination:      051.6350 deg
RA of node:       248.7386 deg
Eccentricity:    0.0002462
Arg of perigee:   114.7665 deg
Mean anomaly:     245.4281 deg
Mean motion:   15.95066411 rev/day
Decay rate:     9.0810e-04 rev/day^2
Epoch rev:            2780
Checksum:              291

Satellite: POLLUX
Catalog number: 35693
Epoch time:      10021.87375692
Element set:     191
Inclination:      051.6358 deg
RA of node:       249.2103 deg
Eccentricity:    0.0000497
Arg of perigee:   040.7850 deg
Mean anomaly:     319.3729 deg
Mean motion:   15.92776851 rev/day
Decay rate:     6.2178e-04 rev/day^2
Epoch rev:            2778
Checksum:              321

Satellite: CASTOR
Catalog number: 35694
Epoch time:      10021.77936244
Element set:     165
Inclination:      051.6400 deg
RA of node:       253.1910 deg
Eccentricity:    0.0002345
Arg of perigee:   359.7958 deg
Mean anomaly:     000.3174 deg
Mean motion:   15.85764247 rev/day
Decay rate:     2.2276e-04 rev/day^2
Epoch rev:            2772
Checksum:              290

Satellite: METEOR-M
Catalog number: 35865
Epoch time:      10021.69077836
Element set:     107
Inclination:      098.7797 deg
RA of node:       076.3908 deg
Eccentricity:    0.0003233
Arg of perigee:   066.6733 deg
Mean anomaly:     293.4733 deg
Mean motion:   14.21828572 rev/day
Decay rate:       1.76e-06 rev/day^2
Epoch rev:            1790
Checksum:              319

Satellite: RS-38
Catalog number: 35869
Epoch time:      10020.90364909
Element set:     109
Inclination:      098.7780 deg
RA of node:       075.6263 deg
Eccentricity:    0.0005430
Arg of perigee:   074.0035 deg
Mean anomaly:     286.1284 deg
Mean motion:   14.21973389 rev/day
Decay rate:       1.76e-06 rev/day^2
Epoch rev:            1779
Checksum:              320

/EX



_______________________________________________
Via the Keps mailing list courtesy of AMSAT-NA
http://amsat.org/mailman/listinfo/keps

--- ViaMAIL!/WC v1.60d
 * Origin: Chowdanet (401-724-4410) telnet://chowdanet.com  (1:323/120)